User: anonymous   Login
Location: Harbor View
(36.2448°N, 86.5797°W)
Time: 23:53:22
(UTC+00:00)
Language:

COSMO-SKYMED 1 - Orbit

View from above orbital plane
View from above orbital plane
View from above satellite
View from above satellite

Ground track
Ground track

The orbit data is extracted from the following two-line orbital elements,

1 31598U 07023A   21128.47352180  .00000167  00000-0  27538-4 0  9995
2 31598  97.8901 312.9337 0001528  88.1486 271.9927 14.82152913752974
Epoch (UTC): 08 May 2021 11:21:52
Eccentricity: 0.0001528
inclination: 97.8901°
perigee height: 621 km
apogee height: 623 km
right ascension of ascending node: 312.9337°
argument of perigee: 88.1486°
revolutions per day: 14.82152913
mean anomaly at epoch: 271.9927°
orbit number at epoch: 75297

The dashed part of the orbit path shows where the satellite is in the earth's shadow,  

DLR